Tracking 23441 objects as of 15-Jun-2021
HD Live streaming from Space Station
objects crossing your sky now

COSMOS 2531

Track COSMOS 2531 now!
10-day predictions


NORAD ID: 43752
Int'l Code: 2018-097B
Perigee: 1,487.6 km
Apogee: 1,515.6 km
Inclination: 82.5 °
Period: 115.9 minutes
Semi major axis: 7872 km
RCS: Unknown
Launch date: November 30, 2018
Source: Commonwealth of Independent States (former USSR) (CIS)
Launch site: PLESETSK MISSILE AND SPACE COMPLEX (PKMTR)
aabbcc
Your satellite tracking list
Your tracking list is empty




NASA's NSSDC Master Catalog

Two Line Element Set (TLE):
1 43752U 18097B   21166.38681853  .00000010  00000-0  00000+0 0  9994
2 43752  82.5188 277.1548 0017788  84.4699 275.8407 12.42866955115323
Source of the keplerian elements: AFSPC